Lexington Weather

Lexington, Massachusetts, USA

73°F
8/7/2020 11:31am 
  • Lexington Conditions: Clear
  • Temperature: 73.0°F / 22.8°CWarmer 2.5°F than last hour.
  • Dew Point: 63.9°FIncreased 0.9°Fsince last hour.
  • Relative Humidity: 73%Decreased 4.0% since last hour.
  • Wind: Wind from ESE ESE 1 mph, 10-min avg: Calm, gust: 2 mph
  • Barometer: 30.14 in Steady
  • Visibility: 10 miles
  • Rain Today: 0.00 in
  •   

Regional Weather Roundup
for Boston / Norton, MA

        
000
ASUS41 KBOX 070304
RWRBOX

REGIONAL WEATHER ROUNDUP
NATIONAL WEATHER SERVICE BOSTON/NORTON MA
1100 PM EDT THU AUG 06 2020

NOTE:  "FAIR" INDICATES FEW OR NO CLOUDS BELOW 12,000 FEET WITH NO 
SIGNIFICANT WEATHER AND/OR OBSTRUCTIONS TO VISIBILITY.

MAZALL-070400-
EASTERN MASSACHUSETTS
  
CITY           SKY/WX    TMP DP  RH WIND       PRES   REMARKS
BOSTON         CLOUDY    75  56  51 W5        30.13R                  
BEVERLY        PTCLDY    64  58  80 CALM      30.13R                  
LAWRENCE       CLEAR     65  58  78 CALM      30.15R                  
BEDFORD        PTCLDY    67  60  78 CALM      30.12S                  
BLUE HILL        N/A     70  56  61 SW8       30.14S                  
NORWOOD        PTCLDY    66  58  75 CALM      30.13S                  
MARSHFIELD     PTCLDY    70  57  64 CALM      30.12S                  
PLYMOUTH       CLEAR     67  55  65 CALM      30.13S                  
TAUNTON        CLEAR     63  59  87 CALM      30.13R                  
NEW BEDFORD    CLEAR     64  59  83 CALM      30.12S                  
$$

MAZALL-070400-
CAPE COD AND THE ISLANDS
  
CITY           SKY/WX    TMP DP  RH WIND       PRES   REMARKS
FALMOUTH       CLEAR     68  57  68 CALM      30.13S                  
HYANNIS        PTCLDY    69  60  73 CALM      30.11F                  
CHATHAM        PTCLDY    67  59  75 CALM      30.14S                  
PROVINCETOWN   PTCLDY    70  60  70 S7        30.13S                  
NANTUCKET      PTCLDY    65  64  97 SW3       30.13S FOG              
MARTHAS VNYRD  PTCLDY    63  61  93 NE3       30.12F                  
$$
 
MAZALL-070400-
CENTRAL AND WESTERN MASSACHUSETTS
  
CITY           SKY/WX    TMP DP  RH WIND       PRES   REMARKS
WORCESTER      PTCLDY    68  59  73 W7        30.17S                  
FITCHBURG      PTCLDY    67  59  75 N3        30.15S                  
ORANGE         MOCLDY    66  60  81 CALM      30.17R                  
SPRINGFIELD    PTCLDY    65  62  91 NE3       30.13S                  
WESTFIELD      PTCLDY    66  62  87 CALM      30.13S                  
NORTH ADAMS    PTCLDY    59  56  89 CALM      30.17S                  
PITTSFIELD     PTCLDY    62  58  86 CALM      30.17R                  
$$
 
RIZALL-070400-
RHODE ISLAND
  
CITY           SKY/WX    TMP DP  RH WIND       PRES   REMARKS
PROVIDENCE     MOCLDY    72  60  66 CALM      30.14R                  
NEWPORT        MOCLDY    67  62  84 CALM      30.13S                  
BLOCK ISLAND   MOCLDY    69  64  84 N5        30.13F                  
SMITHFIELD     PTCLDY    65  61  87 CALM      30.15R                  
WESTERLY       MOCLDY    67  62  84 CALM      30.13F                  
$$
 
CTZALL-070400-
CONNECTICUT
  
CITY           SKY/WX    TMP DP  RH WIND       PRES   REMARKS
BRADLEY INTL   PTCLDY    72  61  68 CALM      30.12F                  
HARTFORD       PTCLDY    71  64  78 CALM      30.11F                  
BRIDGEPORT     NOT AVBL                                               
DANBURY        MOCLDY    68  64  87 CALM      30.14S                  
GROTON         CLOUDY    70  66  87 CALM      30.12S                  
NEW HAVEN      MOCLDY    72  68  87 CALM      30.12F                  
CHESTER        NOT AVBL                                               
MERIDEN        NOT AVBL                                               
WILLIMANTIC    PTCLDY    66  62  87 CALM      30.14F                  
OXFORD         PTCLDY    67  63  87 CALM      30.15F                  
$$

MEZ002-015-021-024-NHZ003-005-008-011-012-014-VTZ005-008-070400-
NORTHERN NEW ENGLAND
  
CITY           SKY/WX    TMP DP  RH WIND       PRES   REMARKS
PORTLAND ME    CLEAR     67  55  65 W3        30.13R                  
BANGOR ME      CLEAR     63  53  70 NW3       30.11R                  
CONCORD NH     CLEAR     62  53  72 NE3       30.14R                  
MANCHESTER NH  PTCLDY    68  55  63 CALM      30.12R                  
NASHUA NH      CLEAR     65  60  84 NW3       30.15R                  
PORTSMOUTH NH  PTCLDY    63  53  68 CALM      30.12R                  
JAFFREY NH     CLEAR     58  55  90 CALM      30.18R                  
KEENE NH       CLEAR     58  57  97 CALM      30.17R                  
BURLINGTON VT  PTCLDY    64  57  78 NE5       30.15R                  
MT. WASHINGTON PTCLDY    45  41  87 W6          N/A                   
$$

NYZ052-076-070400-
EASTERN NEW YORK
  
CITY           SKY/WX    TMP DP  RH WIND       PRES   REMARKS
ALBANY         MOCLDY    63  58  83 E3        30.14R                  
NEW YORK CITY  CLOUDY    77  58  51 E5        30.10F                  
$$
 
ANZALL-070400-
MARINE OBSERVATIONS
  
STATION/POSITION TIME  TEMP    WIND        PRES    VSBY  WAVE
                       AIR SEA DIR/SP/G                  HT/PER
                 (UTC) (F)     (DEG/KT/KT) (MB)    (MI)  (FT/S)
BOSTON BUOY      0250   67 64  280/  2/  2 1019.1R         1/11
BUZZARDS BAY     0200          270/  3/  3 1021.2R
NANTUCKET SOUND  0250      77  230/  2/  4   N/A           1
MASS BAY-STELLWA 0204   66     280/  4/  6 1017.9R  1 7/8  1/ 6
ISLE OF SHOALS   0200   71     200/  5/  5 1019.5R
S OF BLOCK IS    0226      72                N/A           3/ 7
$$

......................KEY.........................
  SKY/WX - SKY CONDITION/PRESENT WEATHER
  TMP    - TEMPERATURE IN FAHRENHEIT
  DWPT   - DEWPOINT IN FAHRENHEIT
  RH     - RELATIVE HUMIDITY IN PERCENT
  WIND   - DIRECTION AND SPEED IN MPH
  PRES   - MEAN SEA LEVEL PRESSURE IN INCHES OF HG
  WCI    - WIND CHILL INDEX
  VSB    - VISIBILITY IN MILES
  HX     - HEAT INDEX
  TC     - TEMPERATURE IN CELSIUS
  VRB    - VARIABLE WIND DIRECTION
  N/A    - NOT AVAILABLE
  
      

Other recent Regional Weather Roundups

Fri Aug 7, 11:04am

Fri Aug 7, 10:04am

Fri Aug 7, 9:04am

Fri Aug 7, 8:04am

Fri Aug 7, 7:04am

Fri Aug 7, 6:04am

Fri Aug 7, 5:04am

Fri Aug 7, 4:04am

Fri Aug 7, 3:04am

Fri Aug 7, 2:04am

Fri Aug 7, 1:05am

Fri Aug 7, 12:04am

Thu Aug 6, 10:04pm

Thu Aug 6, 9:04pm

Thu Aug 6, 8:04pm

Thu Aug 6, 7:04pm

Thu Aug 6, 6:04pm

Thu Aug 6, 5:04pm

Thu Aug 6, 4:05pm

Thu Aug 6, 3:04pm

Thu Aug 6, 2:05pm

Thu Aug 6, 1:04pm

Thu Aug 6, 12:04pm

Thu Aug 6, 11:04am

Thu Aug 6, 10:04am

Thu Aug 6, 9:04am

Thu Aug 6, 8:04am

Thu Aug 6, 7:04am

Thu Aug 6, 6:04am

Thu Aug 6, 5:04am

Thu Aug 6, 4:04am

Thu Aug 6, 3:04am

Thu Aug 6, 2:05am

Thu Aug 6, 1:04am

Thu Aug 6, 12:04am

Wed Aug 5, 11:04pm

Wed Aug 5, 10:04pm

Wed Aug 5, 9:04pm

Wed Aug 5, 8:05pm

Wed Aug 5, 7:04pm

Wed Aug 5, 6:04pm

Wed Aug 5, 5:04pm

Wed Aug 5, 4:05pm

Wed Aug 5, 3:04pm

Wed Aug 5, 2:04pm

Wed Aug 5, 1:04pm

Wed Aug 5, 12:04pm

Wed Aug 5, 11:04am

Wed Aug 5, 10:04am

Wed Aug 5, 9:04am

Wed Aug 5, 8:04am

Wed Aug 5, 7:04am

Wed Aug 5, 6:04am

Wed Aug 5, 5:04am

Wed Aug 5, 4:04am

Wed Aug 5, 3:04am

Wed Aug 5, 2:05am

Wed Aug 5, 1:04am

Wed Aug 5, 12:05am

Tue Aug 4, 11:05pm

Tue Aug 4, 10:05pm

Tue Aug 4, 9:04pm

Tue Aug 4, 8:04pm

Tue Aug 4, 7:05pm

Tue Aug 4, 6:05pm

Tue Aug 4, 5:05pm

Tue Aug 4, 4:05pm

Tue Aug 4, 3:04pm

Tue Aug 4, 2:05pm

Tue Aug 4, 1:04pm

Tue Aug 4, 12:05pm

Tue Aug 4, 11:04am

Tue Aug 4, 10:04am

Tue Aug 4, 9:04am

Tue Aug 4, 8:04am

Tue Aug 4, 7:04am

Tue Aug 4, 6:04am

Tue Aug 4, 5:04am

Tue Aug 4, 4:04am

Tue Aug 4, 3:04am

Tue Aug 4, 2:04am

Tue Aug 4, 1:04am

Tue Aug 4, 12:04am

Mon Aug 3, 11:04pm

Mon Aug 3, 10:04pm

Mon Aug 3, 9:04pm

Mon Aug 3, 8:05pm

Mon Aug 3, 7:04pm

Mon Aug 3, 6:04pm

Mon Aug 3, 5:04pm

Mon Aug 3, 4:05pm

Mon Aug 3, 3:04pm

Mon Aug 3, 2:04pm

Mon Aug 3, 1:04pm

Mon Aug 3, 12:05pm

Mon Aug 3, 11:04am

Mon Aug 3, 10:04am

Mon Aug 3, 9:05am

Mon Aug 3, 8:04am

Mon Aug 3, 7:04am

Mon Aug 3, 6:04am

Mon Aug 3, 5:04am

Mon Aug 3, 4:04am

Mon Aug 3, 3:04am

Mon Aug 3, 2:04am

Mon Aug 3, 1:04am

Mon Aug 3, 12:05am

Sun Aug 2, 11:04pm

Sun Aug 2, 10:04pm

Sun Aug 2, 9:04pm

Sun Aug 2, 8:04pm

Sun Aug 2, 7:04pm

Sun Aug 2, 6:04pm

Sun Aug 2, 5:04pm

Sun Aug 2, 4:05pm

Sun Aug 2, 3:04pm

Sun Aug 2, 2:05pm

Sun Aug 2, 1:04pm

Sun Aug 2, 12:04pm

Sun Aug 2, 11:04am

Sun Aug 2, 10:04am

Sun Aug 2, 9:05am

Sun Aug 2, 8:05am

Sun Aug 2, 7:04am

Sun Aug 2, 6:04am

Sun Aug 2, 5:04am

Sun Aug 2, 4:05am

Sun Aug 2, 3:04am

Sun Aug 2, 2:04am

Sun Aug 2, 1:04am

Sun Aug 2, 12:05am

Sat Aug 1, 11:04pm

Sat Aug 1, 10:04pm

Sat Aug 1, 9:04pm

Sat Aug 1, 8:05pm

Sat Aug 1, 7:04pm

Sat Aug 1, 6:04pm

Sat Aug 1, 5:05pm

Sat Aug 1, 4:05pm

Sat Aug 1, 3:04pm

Sat Aug 1, 2:04pm

Sat Aug 1, 1:04pm

Sat Aug 1, 12:04pm

Sat Aug 1, 11:05am

Sat Aug 1, 10:05am

Sat Aug 1, 9:04am

Sat Aug 1, 8:04am

Sat Aug 1, 7:04am

Sat Aug 1, 6:04am

Sat Aug 1, 5:04am

Sat Aug 1, 4:05am

Sat Aug 1, 3:04am

Sat Aug 1, 2:04am

Sat Aug 1, 1:04am

Sat Aug 1, 12:05am

Fri Jul 31, 11:05pm

Fri Jul 31, 10:04pm

Fri Jul 31, 9:04pm

Fri Jul 31, 8:05pm

Fri Jul 31, 7:05pm

Fri Jul 31, 6:04pm

Fri Jul 31, 5:04pm

Fri Jul 31, 4:05pm

Fri Jul 31, 3:04pm

Fri Jul 31, 2:05pm

Fri Jul 31, 1:04pm

Fri Jul 31, 12:04pm

Meta data:

ID: 5efe0f88-9db0-4dba-afe3-83070ea4a100
Link: https://api.weather.gov/products/5efe0f88-9db0-4dba-afe3-83070ea4a100